Weather History for Hayward, WI

Change the Weather History Date:

Saturday, November 16, 2013

  Actual Average Record
Temperature  
Mean Temperature 44 °F -  
Max Temperature 50 °F 37 °F 57 °F (2001)
Min Temperature 39 °F 25 °F 10 °F (2005)
Degree Days  
Heating Degree Days 20    
Moisture  
Dew Point 39 °F    
Average Humidity 86    
Maximum Humidity 100    
Minimum Humidity 73    
Precipitation  
Precipitation 0.45 in - - ()
Sea Level Pressure  
Sea Level Pressure 29.44 in    
Wind  
Wind Speed 6 mph (SSE)    
Max Wind Speed 12 mph    
Max Gust Speed 21 mph    
Visibility 7 miles    
Events Rain    
Averages and records for this station are not official NWS values.
T = Trace of Precipitation, MM = Missing Value Source: NWS Daily Summary

Daily Weather History Graph

Daily Weather History Graph

Search for Another Location

Airport:

Trip Planner

Search our weather history database for the weather conditions in past years. The results will help you decide how hot, cold, wet, or windy it might be!

Date:

Astronomy

Nov. 16, 2013 Rise Set
Actual Time 7:08 AM CST 4:32 PM CST
Civil Twilight 6:35 AM CST 5:05 PM CST
Nautical Twilight 5:59 AM CST 5:41 PM CST
Astronomical Twilight 5:23 AM CST 6:16 PM CST
Moon 4:10 PM CST (11/16) 6:01 AM CST (11/16)
Length of Visible Light 10h 29m
Length of Day
9h 24m
Waxing Gibbous, 99% of the Moon is Illuminated
Nov 16
Waxing Gibbous
Nov 17
Full
Nov 25
Last Quarter
Dec 2
New
Dec 9
First Quarter

Hourly Weather History & Observations

Time (CST) Temp. Windchill Dew Point Humidity Pressure Visibility Wind Dir Wind Speed Gust Speed Precip Events Conditions
12:53 AM 39.9 °F 35.8 °F 33.1 °F 77% 29.69 in 10.0 mi SSE 5.8 mph - N/A   Clear
1:53 AM 41.0 °F 35.2 °F 34.0 °F 76% 29.68 in 10.0 mi South 9.2 mph - N/A   Overcast
2:53 AM 41.0 °F 37.1 °F 33.1 °F 73% 29.67 in 10.0 mi South 5.8 mph - N/A   Mostly Cloudy
3:13 AM 41.0 °F 39.0 °F 33.8 °F 76% 29.64 in 10.0 mi SSE 3.5 mph - N/A   Mostly Cloudy
3:21 AM 39.2 °F 35.9 °F 33.8 °F 81% 29.63 in 10.0 mi SSE 4.6 mph - N/A   Mostly Cloudy
3:53 AM 41.0 °F 38.0 °F 33.1 °F 73% 29.64 in 10.0 mi South 4.6 mph - N/A   Overcast
4:53 AM 42.1 °F 38.4 °F 34.0 °F 73% 29.62 in 10.0 mi SSE 5.8 mph - N/A   Overcast
5:53 AM 42.1 °F 36.6 °F 34.0 °F 73% 29.60 in 10.0 mi SSE 9.2 mph - N/A   Overcast
6:53 AM 43.0 °F 38.8 °F 35.1 °F 74% 29.58 in 10.0 mi South 6.9 mph - N/A   Overcast
7:53 AM 44.1 °F 39.0 °F 36.0 °F 73% 29.57 in 10.0 mi SSE 9.2 mph - N/A   Overcast
8:53 AM 44.1 °F 38.1 °F 36.0 °F 73% 29.56 in 10.0 mi SSE 11.5 mph 20.7 mph N/A   Overcast
9:53 AM 44.1 °F 38.1 °F 37.0 °F 76% 29.56 in 10.0 mi SSE 11.5 mph - N/A   Overcast
10:40 AM 44.6 °F 39.7 °F 37.4 °F 76% 29.54 in 8.0 mi South 9.2 mph 20.7 mph N/A   Overcast
10:53 AM 44.1 °F 39.5 °F 37.0 °F 76% 29.56 in 7.0 mi SSE 8.1 mph - N/A   Overcast
11:53 AM 43.0 °F 37.7 °F 37.9 °F 82% 29.53 in 6.0 mi SSE 9.2 mph - N/A   Haze
12:16 PM 42.8 °F 36.6 °F 37.4 °F 81% 29.49 in 5.0 mi SSE 11.5 mph 19.6 mph N/A   Overcast
12:53 PM 42.1 °F 37.7 °F 39.0 °F 89% 29.47 in 3.0 mi ESE 6.9 mph - N/A   Overcast
1:53 PM 41.0 °F 34.3 °F 37.9 °F 89% 29.46 in 6.0 mi SE 11.5 mph - N/A   Overcast
2:24 PM 41.0 °F 35.2 °F 39.2 °F 93% 29.41 in 1.8 mi SE 9.2 mph - 0.08 in Rain Heavy Rain
2:32 PM 41.0 °F 35.2 °F 39.2 °F 93% 29.40 in 1.8 mi SE 9.2 mph - 0.12 in Rain Heavy Rain
2:35 PM 41.0 °F 34.7 °F 39.2 °F 93% 29.40 in 2.0 mi SE 10.4 mph - 0.14 in Rain Heavy Rain
2:45 PM 41.0 °F 34.7 °F 39.2 °F 93% 29.39 in 6.0 mi SE 10.4 mph 17.3 mph 0.15 in Rain Light Rain
2:53 PM 42.1 °F 37.1 °F 39.0 °F 89% 29.42 in 10.0 mi SE 8.1 mph - 0.15 in   Overcast
3:01 PM 42.8 °F 37.5 °F 39.2 °F 87% 29.39 in 3.0 mi SE 9.2 mph - 0.00 in Rain Light Rain
3:34 PM 42.8 °F 40.1 °F 39.2 °F 87% 29.36 in 4.0 mi ESE 4.6 mph - 0.01 in Rain Light Rain
3:44 PM 42.8 °F 41.1 °F 39.2 °F 87% 29.36 in 6.0 mi ESE 3.5 mph - 0.01 in Rain Light Rain
3:53 PM 42.1 °F - 39.9 °F 92% 29.38 in 3.0 mi Calm Calm - 0.03 in Rain Rain
4:53 PM 42.1 °F 40.2 °F 39.9 °F 92% 29.35 in 6.0 mi East 3.5 mph - 0.08 in Rain Light Rain
5:41 PM 42.8 °F 40.1 °F 41.0 °F 93% 29.30 in 5.0 mi Variable 4.6 mph - 0.04 in Rain Light Rain
5:46 PM 42.8 °F 41.1 °F 41.0 °F 93% 29.30 in 2.5 mi ESE 3.5 mph - 0.09 in Rain Heavy Rain
5:53 PM 43.0 °F - 41.0 °F 93% 29.32 in 3.0 mi Calm Calm - 0.10 in Rain Rain
6:53 PM 44.1 °F - 42.1 °F 93% 29.30 in 10.0 mi Calm Calm - 0.05 in Rain Light Rain
7:06 PM 44.6 °F - 42.8 °F 93% 29.27 in 10.0 mi Calm Calm - 0.00 in Rain Light Rain
7:36 PM 44.6 °F - 42.8 °F 93% 29.27 in 4.0 mi Calm Calm - 0.01 in Rain Rain
7:46 PM 44.6 °F - 42.8 °F 93% 29.27 in 4.0 mi Calm Calm - 0.02 in Rain Light Rain
7:53 PM 44.1 °F - 43.0 °F 96% 29.30 in 4.0 mi Calm Calm - 0.04 in Rain Light Rain
8:53 PM 44.1 °F - 43.0 °F 96% 29.29 in 8.0 mi Calm Calm - 0.00 in   Overcast
9:04 PM 44.6 °F - 44.6 °F 100% 29.27 in 10.0 mi Calm Calm - N/A   Overcast
9:53 PM 46.9 °F - 46.0 °F 97% 29.29 in 6.0 mi South 3.5 mph - N/A   Overcast
10:53 PM 50.0 °F - 48.0 °F 93% 29.29 in 3.0 mi Variable 4.6 mph - 0.00 in   Overcast
11:37 PM 50.0 °F - 48.2 °F 94% 29.29 in 5.0 mi SSW 8.1 mph - N/A   Overcast
11:53 PM 50.0 °F - 48.0 °F 93% 29.31 in 5.0 mi Variable 5.8 mph - N/A   Overcast